Location: Ch�risy
(50.2331°N, 2.9131°E)
Time: 01:50:20
(UTC+00:00)

USA-17 - Pass Details

Date: 17 January 2021
Orbit: 389 x 1775 km, 63.3° (Epoch: 28 February)

Event Time Altitude Azimuth Distance (km) Brightness Sun altitude
Rises 18:06:50 0° 228° (SW) 2,691 9.4 -17.0°
Reaches altitude 10° 18:09:14 10° 230° (SW) 1,659 8.2 -17.3°
Maximum altitude 18:12:45 68° 315° (NW) 456 4.4 -17.9°
Enters shadow 18:13:34 44° 22° (NNE) 581 4.7 -18.0°
